START_TIME,STEP,MOV.,AL01,t_acc.,AL02,t_acc.,E37,t_acc.,H21,t_acc.
1979-07-29 09:00:33.420 ,0,0,0.,24.0,0.,24.0,0.,24.0,0.,24.0
1979-07-29 09:00:57.420 ,0,1,0.,24.0,0.,24.0,1.,24.0,0.,24.0
1979-07-29 09:01:21.420 ,0,0,1.,24.0,0.,24.0,0.,24.0,0.,24.0
1979-07-29 09:01:45.420 ,1,1,0.,24.0,0.,24.0,0.,24.0,0.,24.0
1979-07-29 09:02:09.420 ,1,0,0.,24.0,0.,24.0,1.,24.0,0.,24.0
1979-07-29 09:02:33.420 ,2,1,0.,24.0,0.,24.0,2.,24.0,0.,24.0
1979-07-29 09:02:57.420 ,2,0,0.,24.0,0.,24.0,1.,24.0,0.,24.0
1979-07-29 09:03:21.420 ,3,1,0.,24.0,0.,24.0,6.,24.0,0.,24.0
1979-07-29 09:03:45.420 ,3,0,0.,24.0,0.,24.0,1.,24.0,0.,24.0
1979-07-29 09:04:09.420 ,4,1,0.,24.0,0.,24.0,2.,24.0,0.,24.0
1979-07-29 09:04:33.420 ,4,0,0.,24.0,1.,24.0,1.,24.0,0.,24.0
1979-07-29 09:04:57.420 ,5,1,0.,24.0,0.,24.0,3.,24.0,0.,24.0
1979-07-29 09:05:21.420 ,5,0,0.,24.0,0.,24.0,1.,24.0,0.,24.0
1979-07-29 09:05:45.420 ,6,1,2.,24.0,0.,24.0,2.,24.0,0.,24.0
1979-07-29 09:06:09.420 ,6,0,0.,24.0,0.,24.0,2.,24.0,0.,24.0
1979-07-29 09:06:33.420 ,7,0,6.,24.0,0.,24.0,1.,24.0,0.,24.0
1979-07-29 09:06:57.420 ,7,0,25.,24.0,0.,24.0,4.,24.0,0.,24.0
1979-07-29 09:07:21.420 ,5,1,17.,24.0,0.,24.0,1.,24.0,0.,24.0
1979-07-29 09:07:45.420 ,1,1,0.,24.0,0.,24.0,2.,24.0,0.,24.0
1979-07-29 09:08:09.420 ,2,1,0.,24.0,0.,24.0,2.,24.0,0.,24.0
1979-07-29 09:08:33.420 ,6,1,0.,24.0,0.,24.0,2.,24.0,0.,24.0
1979-07-29 09:08:57.420 ,5,1,12.,24.0,0.,24.0,2.,24.0,0.,24.0
1979-07-29 09:09:21.420 ,1,1,0.,24.0,0.,24.0,3.,24.0,0.,24.0
1979-07-29 09:09:45.420 ,2,1,0.,24.0,0.,24.0,0.,24.0,0.,24.0
1979-07-29 09:10:09.420 ,6,1,0.,24.0,0.,24.0,1.,24.0,0.,24.0
1979-07-29 09:10:33.420 ,5,1,20.,24.0,0.,24.0,2.,24.0,0.,24.0
1979-07-29 09:10:57.420 ,1,1,0.,24.0,0.,24.0,0.,24.0,0.,24.0
1979-07-29 09:11:21.420 ,2,1,0.,24.0,0.,24.0,2.,24.0,0.,24.0
1979-07-29 09:11:45.420 ,6,1,1.,24.0,0.,24.0,3.,24.0,0.,24.0
1979-07-29 09:12:09.420 ,5,1,17.,24.0,0.,24.0,1.,24.0,0.,24.0
1979-07-29 09:12:33.420 ,1,1,0.,24.0,0.,24.0,0.,24.0,0.,24.0
1979-07-29 09:12:57.420 ,2,1,1.,24.0,0.,24.0,1.,24.0,0.,24.0
1979-07-29 09:13:21.420 ,6,1,0.,24.0,0.,24.0,1.,24.0,0.,24.0
1979-07-29 09:13:45.420 ,5,1,15.,24.0,0.,24.0,2.,24.0,0.,24.0
1979-07-29 09:14:09.420 ,1,1,0.,24.0,0.,24.0,0.,24.0,0.,24.0
1979-07-29 09:14:33.420 ,2,1,0.,24.0,0.,24.0,0.,24.0,0.,24.0
1979-07-29 09:14:57.420 ,6,1,0.,24.0,0.,24.0,6.,24.0,0.,24.0
1979-07-29 09:15:21.420 ,5,1,22.,24.0,0.,24.0,0.,24.0,0.,24.0
1979-07-29 09:15:45.420 ,1,1,0.,24.0,0.,24.0,3.,24.0,0.,24.0
1979-07-29 09:16:09.420 ,2,1,0.,24.0,0.,24.0,0.,24.0,0.,24.0
1979-07-29 09:16:33.420 ,6,1,0.,24.0,0.,24.0,0.,24.0,0.,24.0
1979-07-29 09:16:57.420 ,5,1,15.,24.0,0.,24.0,2.,24.0,0.,24.0
1979-07-29 09:17:21.420 ,1,1,1.,24.0,0.,24.0,0.,24.0,0.,24.0
1979-07-29 09:17:45.420 ,0,0,0.,24.0,0.,24.0,2.,24.0,0.,24.0
1979-07-29 09:18:09.420 ,0,0,0.,24.0,0.,24.0,2.,24.0,0.,24.0
1979-07-29 09:18:33.420 ,5,1,19.,24.0,0.,24.0,0.,24.0,0.,24.0
1979-07-29 09:18:57.420 ,5,0,0.,24.0,0.,24.0,3.,24.0,0.,24.0
1979-07-29 09:19:21.420 ,4,1,0.,24.0,0.,24.0,2.,24.0,0.,24.0
1979-07-29 09:19:45.420 ,4,0,0.,24.0,0.,24.0,1.,24.0,0.,24.0
1979-07-29 09:20:09.420 ,3,1,0.,24.0,0.,24.0,3.,24.0,0.,24.0
1979-07-29 09:20:33.420 ,3,0,0.,24.0,0.,24.0,2.,24.0,0.,24.0
1979-07-29 09:20:57.420 ,2,1,0.,24.0,0.,24.0,2.,24.0,0.,24.0
1979-07-29 09:21:21.420 ,2,0,1.,24.0,0.,24.0,0.,24.0,0.,24.0
1979-07-29 09:21:45.420 ,1,1,0.,24.0,0.,24.0,2.,24.0,0.,24.0
1979-07-29 09:22:09.420 ,1,0,0.,24.0,0.,24.0,1.,24.0,0.,24.0
1979-07-29 09:22:33.420 ,0,1,0.,24.0,0.,24.0,3.,24.0,0.,24.0
1979-07-29 09:22:57.420 ,0,0,0.,24.0,0.,24.0,2.,24.0,0.,24.0
1979-07-29 09:23:21.420 ,0,1,0.,24.0,0.,24.0,3.,24.0,0.,24.0
1979-07-29 09:23:45.420 ,0,0,0.,24.0,0.,24.0,2.,24.0,0.,24.0
1979-07-29 09:24:09.420 ,1,1,0.,24.0,0.,24.0,2.,24.0,0.,24.0
1979-07-29 09:24:33.420 ,1,0,0.,24.0,0.,24.0,0.,24.0,0.,24.0
1979-07-29 09:24:57.420 ,2,1,0.,24.0,0.,24.0,3.,24.0,0.,24.0
1979-07-29 09:25:21.420 ,2,0,0.,24.0,0.,24.0,1.,24.0,0.,24.0
1979-07-29 09:25:45.420 ,3,1,0.,24.0,0.,24.0,2.,24.0,0.,24.0
1979-07-29 09:26:09.420 ,3,0,0.,24.0,0.,24.0,0.,24.0,0.,24.0
1979-07-29 09:26:33.420 ,4,1,0.,24.0,0.,24.0,3.,24.0,0.,24.0
1979-07-29 09:26:57.420 ,4,0,0.,24.0,0.,24.0,2.,24.0,0.,24.0
1979-07-29 09:27:21.420 ,5,1,0.,24.0,0.,24.0,1.,24.0,0.,24.0
1979-07-29 09:27:45.420 ,5,0,0.,24.0,0.,24.0,2.,24.0,0.,24.0
1979-07-29 09:28:09.420 ,6,1,0.,24.0,0.,24.0,2.,24.0,0.,24.0
1979-07-29 09:28:33.420 ,6,0,0.,24.0,0.,24.0,2.,24.0,0.,24.0
1979-07-29 09:28:57.420 ,7,1,8.,24.0,0.,24.0,0.,24.0,0.,24.0
1979-07-29 09:29:21.420 ,7,0,33.,24.0,0.,24.0,4.,24.0,0.,24.0
1979-07-29 09:29:45.420 ,7,1,23.,24.0,0.,24.0,0.,24.0,0.,24.0
1979-07-29 09:30:09.420 ,7,0,39.,24.0,0.,24.0,1.,24.0,0.,24.0
1979-07-29 09:30:33.420 ,6,1,15.,24.0,0.,24.0,1.,24.0,0.,24.0
1979-07-29 09:30:57.420 ,6,0,0.,24.0,0.,24.0,0.,24.0,0.,24.0
1979-07-29 09:31:21.420 ,5,1,0.,24.0,0.,24.0,3.,24.0,0.,24.0
1979-07-29 09:31:45.420 ,5,0,0.,24.0,0.,24.0,1.,24.0,0.,24.0
1979-07-29 09:32:09.420 ,4,1,0.,24.0,0.,24.0,2.,24.0,0.,24.0
1979-07-29 09:32:33.420 ,4,0,0.,24.0,0.,24.0,1.,24.0,0.,24.0
1979-07-29 09:32:57.420 ,3,1,0.,24.0,0.,24.0,1.,24.0,0.,24.0
1979-07-29 09:33:21.420 ,3,0,0.,24.0,0.,24.0,2.,24.0,0.,24.0
1979-07-29 09:33:45.420 ,2,1,0.,24.0,1.,24.0,0.,24.0,0.,24.0
1979-07-29 09:34:09.420 ,2,0,0.,24.0,0.,24.0,1.,24.0,0.,24.0
1979-07-29 09:34:33.420 ,1,1,0.,24.0,0.,24.0,0.,24.0,0.,24.0
1979-07-29 09:34:57.420 ,1,0,0.,24.0,0.,24.0,2.,24.0,0.,24.0
1979-07-29 09:35:21.420 ,0,1,0.,24.0,0.,24.0,0.,24.0,0.,24.0
1979-07-29 09:35:45.420 ,0,0,0.,24.0,0.,24.0,1.,24.0,0.,24.0
1979-07-29 09:36:09.420 ,0,1,0.,24.0,0.,24.0,2.,24.0,0.,24.0
1979-07-29 09:36:33.420 ,0,0,0.,24.0,0.,24.0,1.,24.0,0.,24.0
1979-07-29 09:36:57.420 ,1,1,0.,24.0,0.,24.0,1.,24.0,0.,24.0
1979-07-29 09:37:21.420 ,1,0,0.,24.0,0.,24.0,3.,24.0,0.,24.0
1979-07-29 09:37:45.420 ,2,1,0.,24.0,0.,24.0,1.,24.0,0.,24.0
1979-07-29 09:38:09.420 ,2,0,1.,24.0,0.,24.0,1.,24.0,0.,24.0
1979-07-29 09:38:33.420 ,3,1,0.,24.0,0.,24.0,3.,24.0,0.,24.0
1979-07-29 09:38:57.420 ,3,0,0.,24.0,0.,24.0,1.,24.0,0.,24.0
1979-07-29 09:39:21.420 ,4,1,0.,24.0,0.,24.0,4.,24.0,0.,24.0
1979-07-29 09:39:45.420 ,4,0,0.,24.0,0.,24.0,1.,24.0,0.,24.0
1979-07-29 09:40:09.420 ,5,1,0.,24.0,0.,24.0,0.,24.0,0.,24.0
1979-07-29 09:40:33.420 ,5,0,0.,24.0,0.,24.0,0.,24.0,0.,24.0
1979-07-29 09:40:57.420 ,6,1,0.,24.0,0.,24.0,1.,24.0,0.,24.0
1979-07-29 09:41:21.420 ,6,0,0.,24.0,0.,24.0,1.,24.0,0.,24.0
1979-07-29 09:41:45.420 ,7,1,5.,24.0,0.,24.0,0.,24.0,0.,24.0
1979-07-29 09:42:09.420 ,7,0,21.,24.0,0.,24.0,1.,24.0,0.,24.0
1979-07-29 09:42:33.420 ,7,1,37.,24.0,0.,24.0,3.,24.0,0.,24.0
1979-07-29 09:42:57.420 ,7,0,27.,24.0,0.,24.0,1.,24.0,0.,24.0
1979-07-29 09:43:21.420 ,6,1,19.,24.0,0.,24.0,2.,24.0,0.,24.0
1979-07-29 09:43:45.420 ,6,0,0.,24.0,0.,24.0,4.,24.0,0.,24.0
1979-07-29 09:44:09.420 ,5,1,0.,24.0,0.,24.0,1.,24.0,0.,24.0
1979-07-29 09:44:33.420 ,5,0,0.,24.0,0.,24.0,2.,24.0,0.,24.0
1979-07-29 09:44:57.420 ,4,1,0.,24.0,0.,24.0,0.,24.0,0.,24.0
1979-07-29 09:45:21.420 ,4,0,0.,24.0,0.,24.0,0.,24.0,0.,24.0
1979-07-29 09:45:45.420 ,3,1,0.,24.0,0.,24.0,2.,24.0,0.,24.0
1979-07-29 09:46:09.420 ,3,0,1.,24.0,0.,24.0,2.,24.0,0.,24.0
1979-07-29 09:46:33.420 ,2,1,0.,24.0,0.,24.0,1.,24.0,0.,24.0
1979-07-29 09:46:57.420 ,2,0,0.,24.0,0.,24.0,1.,24.0,0.,24.0
1979-07-29 09:47:21.420 ,1,1,0.,24.0,0.,24.0,2.,24.0,0.,24.0
1979-07-29 09:47:45.420 ,1,0,0.,24.0,0.,24.0,0.,24.0,0.,24.0
1979-07-29 09:48:09.420 ,0,1,0.,24.0,0.,24.0,2.,24.0,0.,24.0
1979-07-29 09:48:33.420 ,0,0,0.,24.0,0.,24.0,0.,24.0,0.,24.0
1979-07-29 09:48:57.420 ,0,1,0.,24.0,0.,24.0,0.,24.0,0.,24.0
1979-07-29 09:49:21.420 ,0,0,0.,24.0,0.,24.0,0.,24.0,0.,24.0
1979-07-29 09:49:45.420 ,1,1,0.,24.0,0.,24.0,0.,24.0,0.,24.0
1979-07-29 09:50:09.420 ,1,0,0.,24.0,0.,24.0,5.,24.0,0.,24.0
1979-07-29 09:50:33.420 ,2,1,0.,24.0,0.,24.0,3.,24.0,0.,24.0
1979-07-29 09:50:57.420 ,2,0,0.,24.0,0.,24.0,1.,24.0,0.,24.0
1979-07-29 09:51:21.420 ,3,1,0.,24.0,1.,24.0,0.,24.0,0.,24.0
1979-07-29 09:51:45.420 ,3,0,0.,24.0,0.,24.0,0.,24.0,0.,24.0
1979-07-29 09:52:09.420 ,4,1,0.,24.0,0.,24.0,1.,24.0,0.,24.0
1979-07-29 09:52:33.420 ,4,0,0.,24.0,0.,24.0,2.,24.0,0.,24.0
1979-07-29 09:52:57.420 ,5,1,0.,24.0,0.,24.0,2.,24.0,0.,24.0
1979-07-29 09:53:21.420 ,5,0,0.,24.0,0.,24.0,2.,24.0,0.,24.0
1979-07-29 09:53:45.420 ,6,1,1.,24.0,0.,24.0,2.,24.0,0.,24.0
1979-07-29 09:54:09.420 ,6,0,0.,24.0,0.,24.0,2.,24.0,0.,24.0
1979-07-29 09:54:33.420 ,7,0,5.,24.0,0.,24.0,1.,24.0,0.,24.0
1979-07-29 09:54:57.420 ,7,0,27.,24.0,0.,24.0,1.,24.0,0.,24.0
1979-07-29 09:55:21.420 ,5,1,18.,24.0,0.,24.0,1.,24.0,0.,24.0
1979-07-29 09:55:45.420 ,1,1,0.,24.0,0.,24.0,2.,24.0,0.,24.0
1979-07-29 09:56:09.420 ,2,1,0.,24.0,0.,24.0,2.,24.0,0.,24.0
1979-07-29 09:56:33.420 ,6,1,0.,24.0,0.,24.0,1.,24.0,0.,24.0
1979-07-29 09:56:57.420 ,5,1,12.,24.0,0.,24.0,3.,24.0,0.,24.0
1979-07-29 09:57:21.420 ,1,1,0.,24.0,0.,24.0,0.,24.0,0.,24.0
1979-07-29 09:57:45.420 ,2,1,0.,24.0,0.,24.0,4.,24.0,0.,24.0
1979-07-29 09:58:09.420 ,6,1,0.,24.0,0.,24.0,1.,24.0,0.,24.0
1979-07-29 09:58:33.420 ,5,1,22.,24.0,0.,24.0,2.,24.0,0.,24.0
1979-07-29 09:58:57.420 ,1,1,0.,24.0,0.,24.0,1.,24.0,0.,24.0
1979-07-29 09:59:21.420 ,2,1,0.,24.0,0.,24.0,3.,24.0,0.,24.0
1979-07-29 09:59:45.420 ,6,1,0.,24.0,0.,24.0,2.,24.0,0.,24.0
1979-07-29 10:00:09.420 ,5,1,16.,24.0,0.,24.0,2.,24.0,0.,24.0
1979-07-29 10:00:33.420 ,1,1,0.,24.0,0.,24.0,4.,24.0,0.,24.0
1979-07-29 10:00:57.420 ,2,1,0.,24.0,0.,24.0,0.,24.0,0.,24.0
1979-07-29 10:01:21.420 ,6,1,0.,24.0,0.,24.0,2.,24.0,0.,24.0
1979-07-29 10:01:45.420 ,5,1,22.,24.0,0.,24.0,3.,24.0,0.,24.0
1979-07-29 10:02:09.420 ,1,1,0.,24.0,0.,24.0,1.,24.0,0.,24.0
1979-07-29 10:02:33.420 ,2,1,0.,24.0,0.,24.0,0.,24.0,0.,24.0
1979-07-29 10:02:57.420 ,6,1,0.,24.0,0.,24.0,1.,24.0,0.,24.0
1979-07-29 10:03:21.420 ,5,1,11.,24.0,0.,24.0,4.,24.0,0.,24.0
1979-07-29 10:03:45.420 ,1,1,0.,24.0,0.,24.0,4.,24.0,0.,24.0
1979-07-29 10:04:09.420 ,2,1,0.,24.0,0.,24.0,0.,24.0,0.,24.0
1979-07-29 10:04:33.420 ,6,1,0.,24.0,0.,24.0,1.,24.0,0.,24.0
1979-07-29 10:04:57.420 ,5,1,21.,24.0,0.,24.0,0.,24.0,0.,24.0
1979-07-29 10:05:21.420 ,1,1,0.,24.0,0.,24.0,2.,24.0,0.,24.0
1979-07-29 10:05:45.420 ,0,0,1.,24.0,0.,24.0,0.,24.0,0.,24.0
1979-07-29 10:06:09.420 ,0,0,0.,24.0,1.,24.0,2.,24.0,0.,24.0
1979-07-29 10:06:33.420 ,5,1,17.,24.0,0.,24.0,3.,24.0,0.,24.0
1979-07-29 10:06:57.420 ,5,0,0.,24.0,1.,24.0,0.,24.0,0.,24.0
1979-07-29 10:07:21.420 ,4,1,1.,24.0,0.,24.0,2.,24.0,0.,24.0
1979-07-29 10:07:45.420 ,4,0,0.,24.0,0.,24.0,1.,24.0,0.,24.0
1979-07-29 10:08:09.420 ,3,1,0.,24.0,0.,24.0,0.,24.0,0.,24.0
1979-07-29 10:08:33.420 ,3,0,0.,24.0,0.,24.0,2.,24.0,0.,24.0
1979-07-29 10:08:57.420 ,2,1,0.,24.0,0.,24.0,0.,24.0,0.,24.0
1979-07-29 10:09:21.420 ,2,0,0.,24.0,0.,24.0,0.,24.0,0.,24.0
1979-07-29 10:09:45.420 ,1,1,0.,24.0,0.,24.0,1.,24.0,0.,24.0
1979-07-29 10:10:09.420 ,1,0,0.,24.0,0.,24.0,1.,24.0,0.,24.0
1979-07-29 10:10:33.420 ,0,1,0.,24.0,0.,24.0,1.,24.0,0.,24.0
1979-07-29 10:10:57.420 ,0,0,1.,24.0,0.,24.0,2.,24.0,0.,24.0
1979-07-29 10:11:21.420 ,0,1,0.,24.0,0.,24.0,1.,24.0,0.,24.0
1979-07-29 10:11:45.420 ,0,0,0.,24.0,0.,24.0,1.,24.0,0.,24.0
1979-07-29 10:12:09.420 ,1,1,0.,24.0,0.,24.0,2.,24.0,0.,24.0
1979-07-29 10:12:33.420 ,1,0,0.,24.0,0.,24.0,1.,24.0,0.,24.0
1979-07-29 10:12:57.420 ,2,1,0.,24.0,0.,24.0,3.,24.0,0.,24.0
1979-07-29 10:13:21.420 ,2,0,0.,24.0,0.,24.0,3.,24.0,0.,24.0
1979-07-29 10:13:45.420 ,3,1,0.,24.0,0.,24.0,1.,24.0,0.,24.0
1979-07-29 10:14:09.420 ,3,0,0.,24.0,0.,24.0,1.,24.0,0.,24.0
1979-07-29 10:14:33.420 ,4,1,0.,24.0,0.,24.0,2.,24.0,0.,24.0
1979-07-29 10:14:57.420 ,4,0,0.,24.0,0.,24.0,1.,24.0,0.,24.0
1979-07-29 10:15:21.420 ,5,1,0.,24.0,0.,24.0,1.,24.0,0.,24.0
1979-07-29 10:15:45.420 ,5,0,0.,24.0,0.,24.0,1.,24.0,0.,24.0
1979-07-29 10:16:09.420 ,6,1,0.,24.0,0.,24.0,0.,24.0,0.,24.0
1979-07-29 10:16:33.420 ,6,0,0.,24.0,0.,24.0,1.,24.0,0.,24.0
1979-07-29 10:16:57.420 ,7,1,11.,24.0,0.,24.0,1.,24.0,0.,24.0
1979-07-29 10:17:21.420 ,7,0,26.,24.0,0.,24.0,3.,24.0,0.,24.0
1979-07-29 10:17:45.420 ,7,1,24.,24.0,0.,24.0,3.,24.0,0.,24.0
1979-07-29 10:18:09.420 ,7,0,18.,24.0,0.,24.0,1.,24.0,0.,24.0
1979-07-29 10:18:33.420 ,6,1,31.,24.0,0.,24.0,1.,24.0,0.,24.0
1979-07-29 10:18:57.420 ,6,0,0.,24.0,0.,24.0,3.,24.0,0.,24.0
1979-07-29 10:19:21.420 ,5,1,0.,24.0,0.,24.0,0.,24.0,0.,24.0
1979-07-29 10:19:45.420 ,5,0,0.,24.0,0.,24.0,3.,24.0,0.,24.0
1979-07-29 10:20:09.420 ,4,1,0.,24.0,0.,24.0,4.,24.0,0.,24.0
1979-07-29 10:20:33.420 ,4,0,0.,24.0,0.,24.0,3.,24.0,0.,24.0
1979-07-29 10:20:57.420 ,3,1,0.,24.0,0.,24.0,0.,24.0,0.,24.0
1979-07-29 10:21:21.420 ,3,0,0.,24.0,0.,24.0,1.,24.0,0.,24.0
1979-07-29 10:21:45.420 ,2,1,0.,24.0,0.,24.0,2.,24.0,0.,24.0
1979-07-29 10:22:09.420 ,2,0,0.,24.0,0.,24.0,1.,24.0,0.,24.0
1979-07-29 10:22:33.420 ,1,1,0.,24.0,0.,24.0,1.,24.0,0.,24.0
1979-07-29 10:22:57.420 ,1,0,0.,24.0,0.,24.0,1.,24.0,0.,24.0
1979-07-29 10:23:21.420 ,0,1,0.,24.0,2.,24.0,1.,24.0,0.,24.0
1979-07-29 10:23:45.420 ,0,0,0.,24.0,0.,24.0,2.,24.0,0.,24.0
1979-07-29 10:24:09.420 ,0,1,0.,24.0,0.,24.0,0.,24.0,0.,24.0
1979-07-29 10:24:33.420 ,0,0,0.,24.0,0.,24.0,4.,24.0,0.,24.0
1979-07-29 10:24:57.420 ,1,1,0.,24.0,0.,24.0,4.,24.0,0.,24.0
1979-07-29 10:25:21.420 ,1,0,2.,24.0,0.,24.0,0.,24.0,0.,24.0
1979-07-29 10:25:45.420 ,2,1,0.,24.0,0.,24.0,0.,24.0,0.,24.0
1979-07-29 10:26:09.420 ,2,0,0.,24.0,0.,24.0,3.,24.0,0.,24.0
1979-07-29 10:26:33.420 ,3,1,0.,24.0,0.,24.0,2.,24.0,0.,24.0
1979-07-29 10:26:57.420 ,3,0,0.,24.0,0.,24.0,2.,24.0,0.,24.0
1979-07-29 10:27:21.420 ,4,1,0.,24.0,0.,24.0,0.,24.0,0.,24.0
1979-07-29 10:27:45.420 ,4,0,0.,24.0,0.,24.0,2.,24.0,0.,24.0
1979-07-29 10:28:09.420 ,5,1,0.,24.0,0.,24.0,1.,24.0,0.,24.0
1979-07-29 10:28:33.420 ,5,0,1.,24.0,0.,24.0,1.,24.0,0.,24.0
1979-07-29 10:28:57.420 ,6,1,0.,24.0,0.,24.0,0.,24.0,0.,24.0
1979-07-29 10:29:21.420 ,6,0,0.,24.0,0.,24.0,0.,24.0,0.,24.0
1979-07-29 10:29:45.420 ,7,1,5.,24.0,0.,24.0,1.,24.0,0.,24.0
1979-07-29 10:30:09.420 ,7,0,31.,24.0,0.,24.0,3.,24.0,0.,24.0
1979-07-29 10:30:33.420 ,7,1,38.,24.0,0.,24.0,2.,24.0,0.,24.0
1979-07-29 10:30:57.420 ,7,0,35.,24.0,0.,24.0,2.,24.0,0.,24.0
1979-07-29 10:31:21.420 ,6,1,24.,24.0,0.,24.0,0.,24.0,0.,24.0
1979-07-29 10:31:45.420 ,6,0,0.,24.0,0.,24.0,2.,24.0,0.,24.0
1979-07-29 10:32:09.420 ,5,1,1.,24.0,0.,24.0,1.,24.0,0.,24.0
1979-07-29 10:32:33.420 ,5,0,1.,24.0,0.,24.0,0.,24.0,0.,24.0
1979-07-29 10:32:57.420 ,4,1,0.,24.0,0.,24.0,1.,24.0,0.,24.0
1979-07-29 10:33:21.420 ,4,0,0.,24.0,0.,24.0,0.,24.0,0.,24.0
1979-07-29 10:33:45.420 ,3,1,0.,24.0,0.,24.0,1.,24.0,0.,24.0
1979-07-29 10:34:09.420 ,3,0,0.,24.0,0.,24.0,1.,24.0,0.,24.0
1979-07-29 10:34:33.420 ,2,1,0.,24.0,0.,24.0,2.,24.0,0.,24.0
1979-07-29 10:34:57.420 ,2,0,0.,24.0,0.,24.0,2.,24.0,0.,24.0
1979-07-29 10:35:21.420 ,1,1,1.,24.0,0.,24.0,3.,24.0,0.,24.0
1979-07-29 10:35:45.420 ,1,0,0.,24.0,0.,24.0,1.,24.0,0.,24.0
1979-07-29 10:36:09.420 ,0,1,0.,24.0,0.,24.0,2.,24.0,0.,24.0
1979-07-29 10:36:33.420 ,0,0,0.,24.0,0.,24.0,0.,24.0,0.,24.0
1979-07-29 10:36:57.420 ,0,1,1.,24.0,0.,24.0,2.,24.0,0.,24.0
1979-07-29 10:37:21.420 ,0,0,0.,24.0,0.,24.0,0.,24.0,0.,24.0
1979-07-29 10:37:45.420 ,1,1,0.,24.0,0.,24.0,0.,24.0,0.,24.0
1979-07-29 10:38:09.420 ,1,0,0.,24.0,0.,24.0,2.,24.0,0.,24.0
1979-07-29 10:38:33.420 ,2,1,0.,24.0,0.,24.0,0.,24.0,0.,24.0
1979-07-29 10:38:57.420 ,2,0,0.,24.0,0.,24.0,1.,24.0,0.,24.0
1979-07-29 10:39:21.420 ,3,1,0.,24.0,0.,24.0,1.,24.0,0.,24.0
1979-07-29 10:39:45.420 ,3,0,0.,24.0,0.,24.0,0.,24.0,0.,24.0
1979-07-29 10:40:09.420 ,4,1,0.,24.0,0.,24.0,0.,24.0,0.,24.0
1979-07-29 10:40:33.420 ,4,0,0.,24.0,0.,24.0,1.,24.0,0.,24.0
1979-07-29 10:40:57.420 ,5,1,0.,24.0,0.,24.0,1.,24.0,0.,24.0
1979-07-29 10:41:21.420 ,5,0,0.,24.0,0.,24.0,0.,24.0,0.,24.0
1979-07-29 10:41:45.420 ,6,1,0.,24.0,0.,24.0,1.,24.0,0.,24.0
1979-07-29 10:42:09.420 ,6,0,0.,24.0,0.,24.0,0.,24.0,0.,24.0
1979-07-29 10:42:33.420 ,7,0,14.,24.0,0.,24.0,1.,24.0,0.,24.0
1979-07-29 10:42:57.420 ,7,0,26.,24.0,0.,24.0,3.,24.0,0.,24.0
1979-07-29 10:43:21.420 ,5,1,16.,24.0,0.,24.0,0.,24.0,0.,24.0
1979-07-29 10:43:45.420 ,1,1,1.,24.0,0.,24.0,0.,24.0,0.,24.0
1979-07-29 10:44:09.420 ,2,1,0.,24.0,0.,24.0,0.,24.0,0.,24.0
1979-07-29 10:44:33.420 ,6,1,0.,24.0,0.,24.0,1.,24.0,0.,24.0
1979-07-29 10:44:57.420 ,5,1,13.,24.0,0.,24.0,0.,24.0,0.,24.0
1979-07-29 10:45:21.420 ,1,1,0.,24.0,0.,24.0,0.,24.0,0.,24.0
1979-07-29 10:45:45.420 ,2,1,0.,24.0,1.,24.0,2.,24.0,0.,24.0
1979-07-29 10:46:09.420 ,6,1,0.,24.0,0.,24.0,0.,24.0,0.,24.0
1979-07-29 10:46:33.420 ,5,1,11.,24.0,0.,24.0,1.,24.0,0.,24.0
1979-07-29 10:46:57.420 ,1,1,0.,24.0,0.,24.0,1.,24.0,0.,24.0
1979-07-29 10:47:21.420 ,2,1,0.,24.0,0.,24.0,1.,24.0,0.,24.0
1979-07-29 10:47:45.420 ,6,1,0.,24.0,0.,24.0,1.,24.0,0.,24.0
1979-07-29 10:48:09.420 ,5,1,20.,24.0,0.,24.0,1.,24.0,0.,24.0
1979-07-29 10:48:33.420 ,1,1,0.,24.0,0.,24.0,0.,24.0,0.,24.0
1979-07-29 10:48:57.420 ,2,1,0.,24.0,0.,24.0,2.,24.0,0.,24.0
1979-07-29 10:49:21.420 ,6,1,0.,24.0,0.,24.0,2.,24.0,0.,24.0
1979-07-29 10:49:45.420 ,5,1,16.,24.0,0.,24.0,0.,24.0,0.,24.0
1979-07-29 10:50:09.420 ,1,1,0.,24.0,0.,24.0,1.,24.0,0.,24.0
1979-07-29 10:50:33.420 ,2,1,0.,24.0,0.,24.0,0.,24.0,0.,24.0
1979-07-29 10:50:57.420 ,6,1,0.,24.0,0.,24.0,1.,24.0,0.,24.0
1979-07-29 10:51:21.420 ,5,1,15.,24.0,0.,24.0,0.,24.0,0.,24.0
1979-07-29 10:51:45.420 ,1,1,0.,24.0,1.,24.0,0.,24.0,0.,24.0
1979-07-29 10:52:09.420 ,2,1,0.,24.0,0.,24.0,1.,24.0,0.,24.0
1979-07-29 10:52:33.420 ,6,1,1.,24.0,0.,24.0,1.,24.0,0.,24.0
1979-07-29 10:52:57.420 ,5,1,8.,24.0,0.,24.0,0.,24.0,0.,24.0
1979-07-29 10:53:21.420 ,1,1,0.,24.0,0.,24.0,0.,24.0,0.,24.0
1979-07-29 10:53:45.420 ,0,0,0.,24.0,0.,24.0,2.,24.0,0.,24.0
1979-07-29 10:54:09.420 ,0,0,0.,24.0,0.,24.0,0.,24.0,0.,24.0
1979-07-29 10:54:33.420 ,5,1,8.,24.0,0.,24.0,0.,24.0,0.,24.0
1979-07-29 10:54:57.420 ,5,0,0.,24.0,0.,24.0,1.,24.0,0.,24.0
1979-07-29 10:55:21.420 ,4,1,0.,24.0,0.,24.0,1.,24.0,0.,24.0
1979-07-29 10:55:45.420 ,4,0,1.,24.0,0.,24.0,0.,24.0,0.,24.0
1979-07-29 10:56:09.420 ,3,1,0.,24.0,0.,24.0,1.,24.0,0.,24.0
1979-07-29 10:56:33.420 ,3,0,0.,24.0,0.,24.0,0.,24.0,0.,24.0
1979-07-29 10:56:57.420 ,2,1,0.,24.0,0.,24.0,0.,24.0,0.,24.0
1979-07-29 10:57:21.420 ,2,0,0.,24.0,0.,24.0,2.,24.0,0.,24.0
1979-07-29 10:57:45.420 ,1,1,0.,24.0,0.,24.0,1.,24.0,0.,24.0
1979-07-29 10:58:09.420 ,1,0,0.,24.0,0.,24.0,2.,24.0,0.,24.0
1979-07-29 10:58:33.420 ,0,1,0.,24.0,0.,24.0,1.,24.0,0.,24.0
1979-07-29 10:58:57.420 ,0,0,0.,24.0,0.,24.0,1.,24.0,0.,24.0
1979-07-29 10:59:21.410 ,0,1,1.,24.0,0.,24.0,0.,24.0,0.,24.0
1979-07-29 10:59:45.410 ,0,0,0.,24.0,0.,24.0,0.,24.0,0.,24.0
1979-07-29 11:00:09.410 ,1,1,0.,24.0,0.,24.0,1.,24.0,0.,24.0
1979-07-29 11:00:33.410 ,1,0,0.,24.0,1.,24.0,1.,24.0,0.,24.0
1979-07-29 11:00:57.410 ,2,1,0.,24.0,0.,24.0,1.,24.0,0.,24.0
1979-07-29 11:01:21.410 ,2,0,0.,24.0,0.,24.0,0.,24.0,0.,24.0
1979-07-29 11:01:45.410 ,3,1,0.,24.0,0.,24.0,1.,24.0,0.,24.0
1979-07-29 11:02:09.410 ,3,0,0.,24.0,0.,24.0,0.,24.0,0.,24.0
1979-07-29 11:02:33.410 ,4,1,0.,24.0,0.,24.0,1.,24.0,0.,24.0
1979-07-29 11:02:57.410 ,4,0,0.,24.0,0.,24.0,2.,24.0,0.,24.0
1979-07-29 11:03:21.410 ,5,1,0.,24.0,0.,24.0,1.,24.0,0.,24.0
1979-07-29 11:03:45.410 ,5,0,0.,24.0,0.,24.0,0.,24.0,0.,24.0
1979-07-29 11:04:09.410 ,6,1,1.,24.0,0.,24.0,1.,24.0,0.,24.0
1979-07-29 11:04:33.410 ,6,0,0.,24.0,0.,24.0,0.,24.0,0.,24.0
1979-07-29 11:04:57.410 ,7,1,7.,24.0,0.,24.0,3.,24.0,0.,24.0
1979-07-29 11:05:21.410 ,7,0,33.,24.0,0.,24.0,3.,24.0,0.,24.0
1979-07-29 11:05:45.410 ,7,1,18.,24.0,0.,24.0,0.,24.0,0.,24.0
1979-07-29 11:06:09.410 ,7,0,33.,24.0,0.,24.0,6.,24.0,0.,24.0
1979-07-29 11:06:33.410 ,6,1,22.,24.0,0.,24.0,1.,24.0,0.,24.0
1979-07-29 11:06:57.410 ,6,0,0.,24.0,0.,24.0,3.,24.0,0.,24.0
1979-07-29 11:07:21.410 ,5,1,0.,24.0,0.,24.0,2.,24.0,0.,24.0
1979-07-29 11:07:45.410 ,5,0,1.,24.0,0.,24.0,0.,24.0,0.,24.0
1979-07-29 11:08:09.410 ,4,1,1.,24.0,0.,24.0,1.,24.0,0.,24.0
1979-07-29 11:08:33.410 ,4,0,0.,24.0,0.,24.0,2.,24.0,0.,24.0
1979-07-29 11:08:57.410 ,3,1,0.,24.0,0.,24.0,0.,24.0,0.,24.0
1979-07-29 11:09:21.410 ,3,0,0.,24.0,0.,24.0,2.,24.0,0.,24.0
1979-07-29 11:09:45.410 ,2,1,0.,24.0,0.,24.0,2.,24.0,0.,24.0
1979-07-29 11:10:09.410 ,2,0,0.,24.0,0.,24.0,0.,24.0,0.,24.0
1979-07-29 11:10:33.410 ,1,1,0.,24.0,0.,24.0,1.,24.0,0.,24.0
1979-07-29 11:10:57.410 ,1,0,0.,24.0,0.,24.0,0.,24.0,0.,24.0
1979-07-29 11:11:21.410 ,0,1,0.,24.0,0.,24.0,1.,24.0,0.,24.0
1979-07-29 11:11:45.410 ,0,0,0.,24.0,0.,24.0,0.,24.0,0.,24.0
1979-07-29 11:12:09.410 ,0,1,0.,24.0,0.,24.0,3.,24.0,0.,24.0
1979-07-29 11:12:33.410 ,0,0,0.,24.0,0.,24.0,4.,24.0,0.,24.0
1979-07-29 11:12:57.410 ,1,1,0.,24.0,0.,24.0,0.,24.0,0.,24.0
1979-07-29 11:13:21.410 ,1,0,0.,24.0,0.,24.0,1.,24.0,0.,24.0
1979-07-29 11:13:45.410 ,2,1,0.,24.0,0.,24.0,3.,24.0,0.,24.0
1979-07-29 11:14:09.410 ,2,0,0.,24.0,0.,24.0,0.,24.0,0.,24.0
1979-07-29 11:14:33.410 ,3,1,0.,24.0,2.,24.0,2.,24.0,0.,24.0
1979-07-29 11:14:57.410 ,3,0,0.,24.0,0.,24.0,2.,24.0,0.,24.0
1979-07-29 11:15:21.410 ,4,1,0.,24.0,0.,24.0,1.,24.0,0.,24.0
1979-07-29 11:15:45.410 ,4,0,0.,24.0,0.,24.0,5.,24.0,0.,24.0
1979-07-29 11:16:09.410 ,5,1,0.,24.0,0.,24.0,4.,24.0,0.,24.0
1979-07-29 11:16:33.410 ,5,0,0.,24.0,0.,24.0,1.,24.0,0.,24.0
1979-07-29 11:16:57.410 ,6,1,0.,24.0,0.,24.0,1.,24.0,0.,24.0
1979-07-29 11:17:21.410 ,6,0,0.,24.0,0.,24.0,0.,24.0,0.,24.0
1979-07-29 11:17:45.410 ,7,1,7.,24.0,1.,24.0,1.,24.0,0.,24.0
1979-07-29 11:18:09.410 ,7,0,26.,24.0,0.,24.0,1.,24.0,0.,24.0
1979-07-29 11:18:33.410 ,7,1,23.,24.0,0.,24.0,3.,24.0,0.,24.0
1979-07-29 11:18:57.410 ,7,0,24.,24.0,0.,24.0,2.,24.0,0.,24.0
1979-07-29 11:19:21.410 ,6,1,28.,24.0,0.,24.0,2.,24.0,0.,24.0
1979-07-29 11:19:45.410 ,6,0,0.,24.0,0.,24.0,0.,24.0,0.,24.0
1979-07-29 11:20:09.410 ,5,1,1.,24.0,0.,24.0,2.,24.0,0.,24.0
1979-07-29 11:20:33.410 ,5,0,0.,24.0,1.,24.0,0.,24.0,0.,24.0
1979-07-29 11:20:57.410 ,4,1,0.,24.0,0.,24.0,1.,24.0,0.,24.0
1979-07-29 11:21:21.410 ,4,0,0.,24.0,0.,24.0,1.,24.0,0.,24.0
1979-07-29 11:21:45.410 ,3,1,0.,24.0,0.,24.0,1.,24.0,0.,24.0
1979-07-29 11:22:09.410 ,3,0,0.,24.0,0.,24.0,2.,24.0,0.,24.0
1979-07-29 11:22:33.410 ,2,1,0.,24.0,0.,24.0,0.,24.0,0.,24.0
1979-07-29 11:22:57.410 ,2,0,0.,24.0,0.,24.0,4.,24.0,0.,24.0
1979-07-29 11:23:21.410 ,1,1,0.,24.0,0.,24.0,2.,24.0,0.,24.0
1979-07-29 11:23:45.410 ,1,0,0.,24.0,0.,24.0,1.,24.0,0.,24.0
1979-07-29 11:24:09.410 ,0,1,0.,24.0,0.,24.0,3.,24.0,0.,24.0
1979-07-29 11:24:33.410 ,0,0,0.,24.0,0.,24.0,4.,24.0,0.,24.0
1979-07-29 11:24:57.410 ,0,1,0.,24.0,0.,24.0,2.,24.0,0.,24.0
1979-07-29 11:25:21.410 ,0,0,0.,24.0,0.,24.0,2.,24.0,0.,24.0
1979-07-29 11:25:45.410 ,1,1,0.,24.0,0.,24.0,1.,24.0,0.,24.0
1979-07-29 11:26:09.410 ,1,0,0.,24.0,1.,24.0,2.,24.0,0.,24.0
1979-07-29 11:26:33.410 ,2,1,0.,24.0,0.,24.0,3.,24.0,0.,24.0
1979-07-29 11:26:57.410 ,2,0,0.,24.0,0.,24.0,3.,24.0,0.,24.0
1979-07-29 11:27:21.410 ,3,1,0.,24.0,0.,24.0,0.,24.0,0.,24.0
1979-07-29 11:27:45.410 ,3,0,0.,24.0,0.,24.0,3.,24.0,0.,24.0
1979-07-29 11:28:09.410 ,4,1,0.,24.0,0.,24.0,1.,24.0,0.,24.0
1979-07-29 11:28:33.410 ,4,0,1.,24.0,0.,24.0,3.,24.0,0.,24.0
1979-07-29 11:28:57.410 ,5,1,0.,24.0,0.,24.0,1.,24.0,0.,24.0
1979-07-29 11:29:21.410 ,5,0,0.,24.0,0.,24.0,1.,24.0,0.,24.0
1979-07-29 11:29:45.410 ,6,1,0.,24.0,0.,24.0,5.,24.0,0.,24.0
1979-07-29 11:30:09.410 ,6,0,0.,24.0,0.,24.0,1.,24.0,0.,24.0
1979-07-29 11:30:33.410 ,7,0,6.,24.0,0.,24.0,3.,24.0,0.,24.0
1979-07-29 11:30:57.410 ,7,0,29.,24.0,0.,24.0,1.,24.0,0.,24.0
1979-07-29 11:31:21.410 ,5,1,10.,24.0,0.,24.0,2.,24.0,0.,24.0
1979-07-29 11:31:45.410 ,1,1,0.,24.0,0.,24.0,1.,24.0,0.,24.0
1979-07-29 11:32:09.410 ,2,1,0.,24.0,0.,24.0,3.,24.0,0.,24.0
1979-07-29 11:32:33.410 ,6,1,0.,24.0,0.,24.0,2.,24.0,0.,24.0
1979-07-29 11:32:57.410 ,5,1,23.,24.0,0.,24.0,0.,24.0,0.,24.0
1979-07-29 11:33:21.410 ,1,1,0.,24.0,0.,24.0,0.,24.0,0.,24.0
1979-07-29 11:33:45.410 ,2,1,0.,24.0,0.,24.0,1.,24.0,0.,24.0
1979-07-29 11:34:09.410 ,6,1,0.,24.0,0.,24.0,2.,24.0,0.,24.0